When you browse on this site, cookies collect data to enhance your experience and personalize the content and advertising you see.
Visit our Privacy Policy to learn more. By continuing to use the site, you agree to this use of cookies and data.
  • In United Kingdom
  • List of Countries
  • For 7 days
  • Water Temperature
  • Satellite Maps
  • Weather Map
  • Weather Widgets
  • user-avatar
    Login

    Hourly Weather Poznan

    Today, 17 July, Wednesday

    Time Temperature Precipitation Wind Pressure Humidity
    00:00 +13°C° 0 mm 3 mps 752 mmHg 89%
    01:00 +12°C° 0 mm 3 mps 752 mmHg 94%
    02:00 +12°C° 0 mm 4 mps 752 mmHg 95%
    03:00 +12°C° 0 mm 4 mps 751 mmHg 95%
    04:00 +12°C° 0 mm 4 mps 751 mmHg 95%
    05:00 +13°C° 0 mm 4 mps 751 mmHg 91%
    06:00 +14°C° 0 mm 4 mps 752 mmHg 87%
    07:00 +15°C° 0 mm 5 mps 752 mmHg 82%
    08:00 +17°C° 0.2 mm 5 mps 752 mmHg 76%
    09:00 +19°C° 0.2 mm 5 mps 752 mmHg 70%
    10:00 +20°C° 0.2 mm 6 mps 752 mmHg 64%
    11:00 +20°C° 0.2 mm 5 mps 752 mmHg 62%
    12:00 +21°C° 0.2 mm 5 mps 752 mmHg 59%
    13:00 +21°C° 0.2 mm 5 mps 752 mmHg 57%
    14:00 +22°C° 0 mm 4 mps 752 mmHg 55%
    15:00 +22°C° 0 mm 4 mps 752 mmHg 53%
    16:00 +22°C° 0 mm 4 mps 752 mmHg 51%
    17:00 +21°C° 0 mm 3 mps 752 mmHg 56%
    18:00 +21°C° 0 mm 3 mps 752 mmHg 61%
    19:00 +20°C° 0 mm 2 mps 752 mmHg 66%
    20:00 +18°C° 0 mm 2 mps 752 mmHg 70%
    21:00 +17°C° 0 mm 2 mps 753 mmHg 73%
    22:00 +15°C° 0 mm 2 mps 753 mmHg 77%
    23:00 +15°C° 0 mm 2 mps 753 mmHg 80%

    Tomorrow, 18 July, Thursday

    Time Temperature Precipitation Wind Pressure Humidity
    00:00 +14°C° 0 mm 2 mps 753 mmHg 83%
    01:00 +13°C° 0 mm 2 mps 753 mmHg 86%
    02:00 +12°C° 0 mm 2 mps 753 mmHg 88%
    03:00 +12°C° 0 mm 1 mps 753 mmHg 89%
    04:00 +12°C° 0 mm 1 mps 753 mmHg 91%
    05:00 +13°C° 0 mm 1 mps 753 mmHg 85%
    06:00 +15°C° 0 mm 1 mps 753 mmHg 79%
    07:00 +16°C° 0 mm 1 mps 753 mmHg 72%
    08:00 +19°C° 0 mm 1 mps 753 mmHg 65%
    09:00 +21°C° 0 mm 1 mps 753 mmHg 59%
    10:00 +22°C° 0 mm 1 mps 753 mmHg 52%
    11:00 +23°C° 0 mm 1 mps 753 mmHg 48%
    12:00 +24°C° 0 mm 1 mps 753 mmHg 43%
    13:00 +25°C° 0 mm 1 mps 752 mmHg 39%
    14:00 +23°C° 0 mm 0 mps 752 mmHg 38%
    15:00 +24°C° 0 mm 0 mps 752 mmHg 37%
    16:00 +24°C° 0 mm 0 mps 752 mmHg 36%
    17:00 +23°C° 0 mm 0 mps 752 mmHg 41%
    18:00 +23°C° 0 mm 1 mps 752 mmHg 46%
    19:00 +22°C° 0 mm 1 mps 752 mmHg 51%
    20:00 +21°C° 0 mm 1 mps 752 mmHg 53%
    21:00 +19°C° 0 mm 1 mps 753 mmHg 54%
    22:00 +18°C° 0 mm 1 mps 753 mmHg 56%
    23:00 +18°C° 0 mm 1 mps 753 mmHg 58%

    Day after tomorrow, 19 July, Friday

    Time Temperature Precipitation Wind Pressure Humidity
    00:00 +16°C° 0 mm 1 mps 753 mmHg 60%
    01:00 +16°C° 0 mm 1 mps 753 mmHg 62%
    02:00 +15°C° 0 mm 1 mps 753 mmHg 64%
    03:00 +15°C° 0 mm 1 mps 753 mmHg 65%
    04:00 +15°C° 0 mm 1 mps 753 mmHg 67%
    05:00 +16°C° 0 mm 1 mps 753 mmHg 65%
    06:00 +18°C° 0 mm 2 mps 753 mmHg 64%
    07:00 +19°C° 0 mm 2 mps 753 mmHg 62%
    08:00 +21°C° 0 mm 2 mps 753 mmHg 57%
    09:00 +23°C° 0 mm 2 mps 753 mmHg 53%
    10:00 +25°C° 0 mm 2 mps 753 mmHg 49%
    11:00 +26°C° 0 mm 2 mps 753 mmHg 47%
    12:00 +27°C° 0 mm 2 mps 753 mmHg 44%
    13:00 +28°C° 0 mm 2 mps 753 mmHg 42%
    14:00 +27°C° 0.1 mm 2 mps 753 mmHg 44%
    15:00 +27°C° 0.1 mm 3 mps 753 mmHg 46%
    16:00 +27°C° 0.1 mm 3 mps 752 mmHg 48%
    17:00 +25°C° 0.7 mm 3 mps 753 mmHg 60%
    18:00 +21°C° 0.7 mm 2 mps 753 mmHg 72%
    19:00 +19°C° 0.7 mm 2 mps 753 mmHg 84%
    20:00 +19°C° 0.1 mm 2 mps 753 mmHg 84%
    21:00 +19°C° 0.1 mm 2 mps 753 mmHg 83%
    22:00 +18°C° 0.1 mm 2 mps 753 mmHg 83%
    23:00 +18°C° 0 mm 2 mps 753 mmHg 85%

    20 July, Saturday

    Time Temperature Precipitation Wind Pressure Humidity
    00:00 +18°C° 0 mm 1 mps 754 mmHg 87%
    01:00 +18°C° 0 mm 1 mps 754 mmHg 88%
    02:00 +16°C° 0 mm 1 mps 754 mmHg 89%
    03:00 +16°C° 0 mm 1 mps 754 mmHg 90%
    04:00 +16°C° 0 mm 1 mps 754 mmHg 90%
    05:00 +19°C° 0 mm 1 mps 754 mmHg 86%
    06:00 +20°C° 0 mm 1 mps 754 mmHg 81%
    07:00 +21°C° 0 mm 2 mps 754 mmHg 77%
    08:00 +23°C° 0 mm 2 mps 754 mmHg 69%
    09:00 +25°C° 0 mm 2 mps 755 mmHg 62%
    10:00 +27°C° 0 mm 2 mps 755 mmHg 55%
    11:00 +27°C° 0 mm 2 mps 755 mmHg 51%
    12:00 +28°C° 0 mm 2 mps 755 mmHg 47%
    13:00 +29°C° 0 mm 2 mps 754 mmHg 43%
    14:00 +29°C° 0 mm 2 mps 754 mmHg 44%
    15:00 +29°C° 0 mm 2 mps 754 mmHg 45%
    16:00 +29°C° 0 mm 2 mps 754 mmHg 45%
    17:00 +28°C° 0 mm 2 mps 754 mmHg 49%
    18:00 +28°C° 0 mm 2 mps 754 mmHg 53%
    19:00 +27°C° 0 mm 2 mps 754 mmHg 57%
    20:00 +25°C° 0 mm 2 mps 754 mmHg 60%
    21:00 +24°C° 0 mm 3 mps 754 mmHg 62%
    22:00 +22°C° 0 mm 3 mps 755 mmHg 65%
    23:00 +22°C° 0.2 mm 3 mps 754 mmHg 67%

    21 July, Sunday

    Time Temperature Precipitation Wind Pressure Humidity
    00:00 +21°C° 0.2 mm 3 mps 754 mmHg 69%
    01:00 +21°C° 0.2 mm 3 mps 754 mmHg 71%
    02:00 +20°C° 0.9 mm 2 mps 754 mmHg 76%
    03:00 +20°C° 0.9 mm 2 mps 754 mmHg 80%
    04:00 +21°C° 0.9 mm 1 mps 754 mmHg 84%
    05:00 +20°C° 0.2 mm 2 mps 754 mmHg 82%
    06:00 +21°C° 0.2 mm 2 mps 754 mmHg 80%
    07:00 +23°C° 0.2 mm 2 mps 754 mmHg 78%
    08:00 +25°C° 0 mm 2 mps 754 mmHg 72%
    09:00 +26°C° 0 mm 3 mps 754 mmHg 66%
    10:00 +28°C° 0 mm 3 mps 754 mmHg 59%
    11:00 +28°C° 0.3 mm 4 mps 754 mmHg 56%
    12:00 +29°C° 0.3 mm 5 mps 754 mmHg 52%
    13:00 +30°C° 0.3 mm 6 mps 754 mmHg 48%
    14:00 +29°C° 0.4 mm 6 mps 755 mmHg 52%
    15:00 +29°C° 0.4 mm 6 mps 755 mmHg 55%
    16:00 +28°C° 0.4 mm 6 mps 755 mmHg 59%
    17:00 +26°C° 0.4 mm 5 mps 755 mmHg 64%
    18:00 +25°C° 0.4 mm 4 mps 755 mmHg 69%
    19:00 +23°C° 0.4 mm 4 mps 756 mmHg 75%
    20:00 +22°C° 0.1 mm 3 mps 756 mmHg 78%
    21:00 +21°C° 0.1 mm 3 mps 756 mmHg 82%
    22:00 +19°C° 0.1 mm 2 mps 757 mmHg 86%
    23:00 +19°C° 0 mm 2 mps 757 mmHg 88%

    22 July, Monday

    Time Temperature Precipitation Wind Pressure Humidity
    00:00 +18°C° 0 mm 2 mps 757 mmHg 89%
    01:00 +18°C° 0 mm 2 mps 757 mmHg 91%
    02:00 +17°C° 0 mm 2 mps 757 mmHg 90%
    03:00 +17°C° 0 mm 2 mps 757 mmHg 90%
    04:00 +17°C° 0 mm 2 mps 757 mmHg 90%
    05:00 +17°C° 0 mm 3 mps 757 mmHg 86%
    06:00 +18°C° 0 mm 3 mps 758 mmHg 83%
    07:00 +19°C° 0 mm 4 mps 758 mmHg 79%
    08:00 +20°C° 0 mm 4 mps 758 mmHg 73%
    09:00 +21°C° 0 mm 4 mps 758 mmHg 68%
    10:00 +22°C° 0 mm 5 mps 758 mmHg 62%
    11:00 +23°C° 0 mm 5 mps 758 mmHg 60%
    12:00 +23°C° 0 mm 5 mps 758 mmHg 57%
    13:00 +25°C° 0 mm 5 mps 757 mmHg 54%
    14:00 +25°C° 0.4 mm 5 mps 757 mmHg 57%
    15:00 +25°C° 0.4 mm 5 mps 757 mmHg 59%
    16:00 +25°C° 0.4 mm 5 mps 757 mmHg 61%
    17:00 +23°C° 0.1 mm 4 mps 757 mmHg 65%
    18:00 +22°C° 0.1 mm 4 mps 757 mmHg 69%
    19:00 +21°C° 0.1 mm 3 mps 757 mmHg 73%
    20:00 +20°C° 0 mm 3 mps 758 mmHg 77%
    21:00 +19°C° 0 mm 3 mps 758 mmHg 82%
    22:00 +17°C° 0 mm 3 mps 758 mmHg 86%
    23:00 +17°C° 0 mm 2 mps 758 mmHg 89%
    Show more